Location: Burbank
(38.7788°N, 114.0429°W)
Time: 02:00:36
(UTC+00:00)

Tiros 1 despin weight - Pass Details

Date: 19 May 2026
Orbit: 554 x 591 km, 48.2° (Epoch: 6 June)

Event Time Altitude Azimuth Distance (km) Brightness Sun altitude
Rises 17:08:34 0° 299° (WNW) 2,735 ? 53.7°
Reaches altitude 10° 17:10:50 10° 296° (WNW) 1,835 ? 54.1°
Maximum altitude 17:14:57 57° 217° (SW) 652 ? 54.8°
Drops below altitude 10° 17:19:02 10° 139° (SE) 1,824 ? 55.6°
Sets 17:21:17 0° 135° (SE) 2,717 ? 56.0°
